{"data":{"norad_id":55748,"epoch":"2026-09-20T22:00:03.000096Z","epoch_age_seconds":67059,"freshness":"FRESH","line1":"1 55748U 23028H   26263.91670139  .00066337  00000+0  46081-2 0  9994","line2":"2 55748  69.9999 112.2098 0004037 315.2038  49.5772 15.05162558  5761","mean_motion":15.05162558,"eccentricity":0.0004037,"inclination_deg":69.9999,"raan_deg":112.2098,"arg_perigee_deg":315.2038,"mean_anomaly_deg":49.5772,"bstar":0.0046081,"rev_number":576,"period_min":95.670729539899,"perigee_km":548.2094422147,"apogee_km":553.80403286839,"semimajor_km":6929.1437375415,"source":"CELESTRAK","updated_at":"2026-09-21T09:00:33.312685Z"}}